TimePST,TemperatureF,Dew PointF,Humidity,Sea Level PressureIn,VisibilityMPH,Wind Direction,Wind SpeedMPH,Gust SpeedMPH,PrecipitationIn,Events,Conditions,WindDirDegrees,DateUTC
12:53 AM,30.9,26.1,82,30.08,10.0,WSW,6.9,-,N/A,,Clear,250,2013-03-08 08:53:00
1:53 AM,28.9,24.1,82,30.08,10.0,West,8.1,-,N/A,,Clear,270,2013-03-08 09:53:00
2:53 AM,28.0,24.1,85,30.08,10.0,West,6.9,-,N/A,,Clear,270,2013-03-08 10:53:00
3:53 AM,27.0,23.0,85,30.07,10.0,WNW,4.6,-,N/A,,Clear,290,2013-03-08 11:53:00
4:53 AM,28.0,23.0,81,30.08,10.0,West,6.9,-,N/A,,Clear,270,2013-03-08 12:53:00
5:53 AM,27.0,21.9,81,30.09,10.0,West,6.9,-,N/A,,Clear,270,2013-03-08 13:53:00
6:53 AM,26.6,23.0,86,30.07,10.0,West,5.8,-,N/A,,Clear,270,2013-03-08 14:53:00
7:53 AM,35.1,27.0,72,30.10,10.0,West,4.6,-,N/A,,Clear,270,2013-03-08 15:53:00
8:53 AM,41.0,30.0,65,30.10,10.0,WSW,5.8,-,N/A,,Clear,240,2013-03-08 16:53:00
9:53 AM,46.0,30.9,56,30.10,10.0,NW,6.9,-,N/A,,Clear,310,2013-03-08 17:53:00
10:53 AM,50.0,33.1,52,30.09,10.0,North,4.6,-,N/A,,Partly Cloudy,350,2013-03-08 18:53:00
11:53 AM,52.0,33.1,49,30.08,10.0,Calm,Calm,-,N/A,,Scattered Clouds,0,2013-03-08 19:53:00
12:53 PM,55.0,32.0,42,30.06,10.0,Variable,3.5,-,N/A,,Scattered Clouds,0,2013-03-08 20:53:00
1:53 PM,55.0,30.0,38,30.05,10.0,Calm,Calm,-,N/A,,Scattered Clouds,0,2013-03-08 21:53:00
2:53 PM,57.0,30.0,36,30.05,10.0,Variable,3.5,-,N/A,,Partly Cloudy,0,2013-03-08 22:53:00
3:53 PM,55.9,30.9,39,30.05,10.0,SSE,4.6,-,N/A,,Clear,160,2013-03-08 23:53:00
4:53 PM,55.9,30.0,37,30.05,10.0,Calm,Calm,-,N/A,,Clear,0,2013-03-09 00:53:00
5:53 PM,51.1,30.9,46,30.07,10.0,Calm,Calm,-,N/A,,Partly Cloudy,0,2013-03-09 01:53:00
6:53 PM,42.1,30.9,65,30.10,10.0,West,3.5,-,N/A,,Clear,280,2013-03-09 02:53:00
7:53 PM,42.1,30.9,65,30.12,10.0,Calm,Calm,-,N/A,,Clear,0,2013-03-09 03:53:00
8:53 PM,39.9,30.0,68,30.15,10.0,WSW,5.8,-,N/A,,Clear,250,2013-03-09 04:53:00
9:53 PM,36.0,28.9,76,30.16,10.0,West,8.1,-,N/A,,Clear,270,2013-03-09 05:53:00
10:53 PM,33.1,27.0,78,30.18,10.0,Calm,Calm,-,N/A,,Clear,0,2013-03-09 06:53:00
11:53 PM,34.0,26.1,73,30.18,10.0,WNW,4.6,-,N/A,,Clear,290,2013-03-09 07:53:00